TimeCDT,TemperatureF,Dew PointF,Humidity,Sea Level PressureIn,VisibilityMPH,Wind Direction,Wind SpeedMPH,Gust SpeedMPH,PrecipitationIn,Events,Conditions,WindDirDegrees,DateUTC
12:34 AM,77.0,73.4,89,29.93,10.0,ESE,4.6,-,N/A,,Mostly Cloudy,120,2013-10-12 05:34:00
12:53 AM,77.0,73.9,90,29.94,10.0,SE,5.8,-,N/A,,Scattered Clouds,130,2013-10-12 05:53:00
1:53 AM,77.0,73.9,90,29.94,10.0,SE,3.5,-,N/A,,Scattered Clouds,130,2013-10-12 06:53:00
2:53 AM,77.0,75.0,94,29.94,8.0,SE,3.5,-,N/A,,Partly Cloudy,140,2013-10-12 07:53:00
3:53 AM,75.9,75.0,97,29.94,8.0,Calm,Calm,-,N/A,,Partly Cloudy,0,2013-10-12 08:53:00
4:53 AM,75.9,73.9,94,29.95,7.0,Calm,Calm,-,N/A,,Scattered Clouds,0,2013-10-12 09:53:00
5:53 AM,75.9,73.9,94,29.96,7.0,ESE,4.6,-,N/A,,Partly Cloudy,120,2013-10-12 10:53:00
6:53 AM,75.9,75.0,97,29.97,8.0,ESE,4.6,-,N/A,,Partly Cloudy,120,2013-10-12 11:53:00
7:53 AM,77.0,75.0,94,30.00,10.0,Calm,Calm,-,N/A,,Scattered Clouds,0,2013-10-12 12:53:00
8:53 AM,79.0,75.9,90,30.02,10.0,SE,5.8,-,N/A,,Mostly Cloudy,130,2013-10-12 13:53:00
9:53 AM,82.0,75.9,82,30.04,10.0,SE,4.6,-,N/A,,Mostly Cloudy,140,2013-10-12 14:53:00
10:53 AM,82.9,75.9,79,30.03,10.0,SE,6.9,-,N/A,,Mostly Cloudy,130,2013-10-12 15:53:00
11:53 AM,87.1,75.0,67,30.02,10.0,South,12.7,16.1,N/A,,Mostly Cloudy,170,2013-10-12 16:53:00
12:25 PM,87.8,75.2,66,30.00,10.0,SSE,10.4,-,N/A,,Mostly Cloudy,150,2013-10-12 17:25:00
12:53 PM,86.0,75.0,70,30.00,10.0,SSE,5.8,-,0.01,Rain,Light Rain,150,2013-10-12 17:53:00
1:27 PM,84.2,75.2,74,29.97,10.0,WNW,4.6,-,0.00,Rain-Thunderstorm,Light Thunderstorms and Rain,300,2013-10-12 18:27:00
1:53 PM,78.1,73.0,84,29.98,10.0,NE,17.3,-,0.00,Thunderstorm,Thunderstorm,50,2013-10-12 18:53:00
2:05 PM,77.0,71.6,83,30.00,1.5,South,15.0,21.9,0.25,Rain-Thunderstorm,Heavy Thunderstorms and Rain,190,2013-10-12 19:05:00
2:06 PM,75.2,71.6,89,30.00,1.0,South,16.1,21.9,0.35,Rain-Thunderstorm,Heavy Thunderstorms and Rain,180,2013-10-12 19:06:00
2:18 PM,73.4,71.6,94,30.00,0.1,East,10.4,25.3,1.38,Rain-Thunderstorm,Heavy Thunderstorms and Rain,90,2013-10-12 19:18:00
2:41 PM,73.4,66.2,78,29.98,0.2,East,25.3,43.7,1.91,Rain-Thunderstorm,Heavy Thunderstorms and Rain,90,2013-10-12 19:41:00
2:53 PM,72.0,64.0,76,29.99,1.0,East,9.2,26.5,1.94,Rain,Rain,100,2013-10-12 19:53:00
2:59 PM,73.4,64.4,73,29.97,1.0,SE,13.8,-,0.02,Rain-Thunderstorm,Thunderstorms and Rain,140,2013-10-12 19:59:00
3:25 PM,71.6,69.8,94,29.97,3.0,South,5.8,-,0.20,Rain-Thunderstorm,Light Thunderstorms and Rain,170,2013-10-12 20:25:00
3:37 PM,73.4,69.8,88,29.96,10.0,SW,3.5,-,0.21,Rain,Light Rain,220,2013-10-12 20:37:00
3:53 PM,73.9,71.1,91,29.95,10.0,SSW,4.6,-,0.21,,Mostly Cloudy,200,2013-10-12 20:53:00
4:53 PM,75.9,72.0,87,29.96,10.0,Variable,4.6,-,N/A,,Mostly Cloudy,0,2013-10-12 21:53:00
5:53 PM,77.0,69.8,78,29.98,10.0,SSW,4.6,-,N/A,,Mostly Cloudy,200,2013-10-12 22:53:00
6:53 PM,73.9,68.0,82,30.01,10.0,Calm,Calm,-,0.00,,Mostly Cloudy,0,2013-10-12 23:53:00
7:53 PM,73.0,69.1,87,30.03,10.0,Calm,Calm,-,N/A,,Mostly Cloudy,0,2013-10-13 00:53:00
8:53 PM,73.9,66.9,79,30.04,10.0,North,5.8,-,N/A,,Mostly Cloudy,10,2013-10-13 01:53:00
9:53 PM,75.0,69.1,82,30.05,10.0,NE,5.8,-,N/A,,Mostly Cloudy,50,2013-10-13 02:53:00
10:47 PM,73.4,71.6,94,30.05,10.0,ENE,4.6,-,N/A,,Scattered Clouds,70,2013-10-13 03:47:00
10:48 PM,73.9,71.1,91,30.06,10.0,ENE,4.6,-,N/A,,Scattered Clouds,70,2013-10-13 03:48:00
11:53 PM,75.0,72.0,90,30.06,10.0,East,4.6,-,N/A,,Mostly Cloudy,90,2013-10-13 04:53:00